Change the Weather History Date:

Tuesday, January 8, 2013

  Actual Average (KDTW) Record (KDTW)
Temperature  
Mean Temperature 30 °F 26 °F  
Max Temperature 35 °F 32 °F 62 °F (1965)
Min Temperature 26 °F 19 °F -10 °F (1981)
Degree Days  
Heating Degree Days 34 39  
Month to date heating degree days 312  
Since 1 July heating degree days 2609  
Cooling Degree Days 0 0  
Month to date cooling degree days 0  
Year to date cooling degree days 0  
Moisture  
Dew Point 25 °F    
Average Humidity 80    
Maximum Humidity 93    
Minimum Humidity 65    
Precipitation  
Precipitation 0.00 in 0.07 in 1.31 in (1874)
Month to date precipitation 0.57  
Year to date precipitation 0.57  
Snow  
Snow 0.00 in 0.40 in 2.80 in (2005)
Month to date snowfall 3.2  
Since 1 July snowfall 14.4  
Snow Depth -    
Sea Level Pressure  
Sea Level Pressure 30.21 in    
Wind  
Wind Speed 7 mph (SSW)    
Max Wind Speed 10 mph    
Max Gust Speed 18 mph    
Visibility 6 miles    
Events      
T = Trace of Precipitation, MM = Missing Value Source: NWS Daily Summary

Daily Weather History Graph

Daily Weather History Graph

Search for Another Location

Airport or City:

Trip Planner

Search our weather history database for the weather conditions in past years. The results will help you decide how hot, cold, wet, or windy it might be!

Date:

Astronomy

Jan. 08, 2013 Rise Set
Actual Time 8:00 AM EST 5:18 PM EST
Civil Twilight 7:29 AM EST 5:49 PM EST
Nautical Twilight 6:54 AM EST 6:24 PM EST
Astronomical Twilight 6:20 AM EST 6:58 PM EST
Moon 4:32 AM EST (1/8) 2:20 PM EST (1/8)
Length of Visible Light 10h 20m
Length of Day
9h 17m
Waning Crescent, 14% of the Moon is Illuminated
Jan 8
Waning Crescent
Jan 11
New
Jan 18
First Quarter
Jan 26
Full
Feb 3
Last Quarter

Hourly Weather History & Observations

Time (EST) Temp. Windchill Dew Point Humidity Pressure Visibility Wind Dir Wind Speed Gust Speed Precip Events Conditions
12:14 AM 30.2 °F 21.9 °F 24.8 °F 80% 30.16 in 10.0 mi SSW 9.2 mph 17.3 mph N/A   Clear
12:34 AM 30.2 °F 21.3 °F 24.8 °F 80% 30.16 in 10.0 mi SSW 10.4 mph 18.4 mph N/A   Clear
12:54 AM 30.2 °F 22.6 °F 24.8 °F 80% 30.17 in 10.0 mi SW 8.1 mph - N/A   Clear
1:14 AM 30.2 °F 24.3 °F 23.0 °F 75% 30.17 in 10.0 mi SW 5.8 mph - N/A   Clear
1:34 AM 30.2 °F 23.4 °F 23.0 °F 75% 30.17 in 10.0 mi SW 6.9 mph - N/A   Clear
1:54 AM 30.2 °F 23.4 °F 23.0 °F 75% 30.18 in 10.0 mi SW 6.9 mph - N/A   Clear
2:15 AM 28.4 °F 22.2 °F 23.0 °F 80% 30.18 in 10.0 mi SSW 5.8 mph - N/A   Clear
2:34 AM 28.4 °F 21.2 °F 23.0 °F 80% 30.18 in 10.0 mi SSW 6.9 mph - N/A   Clear
2:54 AM 28.4 °F 20.4 °F 21.2 °F 74% 30.18 in 10.0 mi SSW 8.1 mph - N/A   Clear
3:15 AM 28.4 °F 21.2 °F 23.0 °F 80% 30.18 in 10.0 mi SSW 6.9 mph - N/A   Clear
3:34 AM 28.4 °F 21.2 °F 21.2 °F 74% 30.18 in 10.0 mi SSW 6.9 mph - N/A   Clear
3:54 AM 28.4 °F 19.7 °F 21.2 °F 74% 30.17 in 7.0 mi SSW 9.2 mph - N/A   Clear
4:15 AM 26.6 °F 17.5 °F 21.2 °F 80% 30.18 in 7.0 mi SSW 9.2 mph - N/A   Clear
4:34 AM 26.6 °F 19.1 °F 21.2 °F 80% 30.18 in 7.0 mi SSW 6.9 mph - N/A   Clear
4:54 AM 26.6 °F 20.0 °F 21.2 °F 80% 30.18 in 7.0 mi SSW 5.8 mph - N/A   Clear
5:14 AM 26.6 °F 19.1 °F 21.2 °F 80% 30.18 in 7.0 mi SSW 6.9 mph - N/A   Clear
5:34 AM 26.6 °F 20.0 °F 21.2 °F 80% 30.18 in 7.0 mi SSW 5.8 mph - N/A   Clear
5:55 AM 26.6 °F 19.1 °F 21.2 °F 80% 30.18 in 7.0 mi SSW 6.9 mph - N/A   Clear
6:14 AM 26.6 °F 21.2 °F 21.2 °F 80% 30.18 in 7.0 mi SSW 4.6 mph - N/A   Clear
6:34 AM 26.6 °F 21.2 °F 21.2 °F 80% 30.19 in 7.0 mi SSW 4.6 mph - N/A   Clear
7:14 AM 26.6 °F 19.1 °F 21.2 °F 80% 30.20 in 7.0 mi SSW 6.9 mph - N/A   Clear
7:34 AM 26.6 °F 18.2 °F 21.2 °F 80% 30.20 in 7.0 mi SSW 8.1 mph - N/A   Clear
7:55 AM 26.6 °F 17.5 °F 21.2 °F 80% 30.21 in 7.0 mi SSW 9.2 mph - N/A   Clear
8:34 AM 26.6 °F 18.2 °F 21.2 °F 80% 30.23 in 5.0 mi SW 8.1 mph - N/A   Haze
8:55 AM 26.6 °F 18.2 °F 21.2 °F 80% 30.23 in 5.0 mi SW 8.1 mph - N/A   Haze
9:14 AM 28.4 °F 20.4 °F 21.2 °F 74% 30.23 in 5.0 mi SSW 8.1 mph - N/A   Haze
9:34 AM 28.4 °F 20.4 °F 23.0 °F 80% 30.23 in 5.0 mi SSW 8.1 mph - N/A   Haze
9:54 AM 28.4 °F 21.2 °F 23.0 °F 80% 30.24 in 5.0 mi SW 6.9 mph - N/A   Haze
10:14 AM 28.4 °F 22.2 °F 23.0 °F 80% 30.25 in 5.0 mi SW 5.8 mph - N/A   Haze
10:34 AM 30.2 °F 25.4 °F 24.8 °F 80% 30.25 in 7.0 mi SW 4.6 mph - N/A   Clear
10:54 AM 32.0 °F 26.4 °F 24.8 °F 75% 30.25 in 7.0 mi SSW 5.8 mph - N/A   Clear
11:14 AM 33.8 °F 28.6 °F 24.8 °F 70% 30.25 in 7.0 mi SSW 5.8 mph - N/A   Clear
11:34 AM 33.8 °F 30.8 °F 24.8 °F 70% 30.25 in 7.0 mi SW 3.5 mph - N/A   Clear
11:54 AM 35.6 °F 28.6 °F 24.8 °F 65% 30.24 in 10.0 mi SW 9.2 mph - N/A   Clear
12:14 PM 35.6 °F 29.9 °F 24.8 °F 65% 30.24 in 10.0 mi SSW 6.9 mph - N/A   Clear
12:34 PM 35.6 °F 29.9 °F 26.6 °F 70% 30.23 in 7.0 mi SSW 6.9 mph - N/A   Clear
12:54 PM 35.6 °F 29.9 °F 26.6 °F 70% 30.21 in 10.0 mi South 6.9 mph - N/A   Clear
1:15 PM 35.6 °F 28.6 °F 28.4 °F 75% 30.21 in 5.0 mi South 9.2 mph - N/A   Haze
1:34 PM 33.8 °F 27.7 °F 28.4 °F 81% 30.21 in 5.0 mi South 6.9 mph - N/A   Haze
1:54 PM 33.8 °F 28.6 °F 28.4 °F 81% 30.21 in 5.0 mi South 5.8 mph - N/A   Haze
2:15 PM 33.8 °F 26.4 °F 28.4 °F 81% 30.21 in 4.0 mi South 9.2 mph - N/A   Haze
2:54 PM 35.6 °F 29.2 °F 28.4 °F 75% 30.22 in 5.0 mi South 8.1 mph - N/A   Haze
3:14 PM 35.6 °F 29.9 °F 28.4 °F 75% 30.22 in 5.0 mi South 6.9 mph - N/A   Haze
3:34 PM 33.8 °F 26.4 °F 28.4 °F 81% 30.22 in 5.0 mi South 9.2 mph - N/A   Haze
3:55 PM 33.8 °F 26.4 °F 30.2 °F 87% 30.22 in 5.0 mi South 9.2 mph - N/A   Clear
4:14 PM 33.8 °F 27.0 °F 28.4 °F 81% 30.23 in 5.0 mi South 8.1 mph - N/A   Haze
4:34 PM 33.8 °F 27.7 °F 28.4 °F 81% 30.22 in 5.0 mi South 6.9 mph - N/A   Haze
4:55 PM 33.8 °F 27.7 °F 28.4 °F 81% 30.22 in 5.0 mi South 6.9 mph - N/A   Haze
5:14 PM 33.8 °F 27.0 °F 28.4 °F 81% 30.22 in 5.0 mi South 8.1 mph - N/A   Clear
5:34 PM 33.8 °F 27.0 °F 28.4 °F 81% 30.23 in 5.0 mi South 8.1 mph - N/A   Clear
5:54 PM 32.0 °F 25.6 °F 28.4 °F 87% 30.23 in 5.0 mi South 6.9 mph - N/A   Clear
6:14 PM 32.0 °F 25.6 °F 28.4 °F 87% 30.22 in 5.0 mi South 6.9 mph - N/A   Clear
6:34 PM 32.0 °F 26.4 °F 28.4 °F 87% 30.22 in 5.0 mi South 5.8 mph - N/A   Clear
6:54 PM 32.0 °F 25.6 °F 28.4 °F 87% 30.22 in 4.0 mi South 6.9 mph - N/A   Clear
7:14 PM 32.0 °F 27.5 °F 28.4 °F 87% 30.22 in 5.0 mi South 4.6 mph - N/A   Clear
7:35 PM 33.8 °F 27.7 °F 28.4 °F 81% 30.22 in 7.0 mi South 6.9 mph - N/A   Clear
7:54 PM 32.0 °F 26.4 °F 28.4 °F 87% 30.22 in 5.0 mi South 5.8 mph - N/A   Clear
8:14 PM 32.0 °F 27.5 °F 28.4 °F 87% 30.23 in 4.0 mi South 4.6 mph - N/A   Clear
8:35 PM 32.0 °F 26.4 °F 28.4 °F 87% 30.23 in 4.0 mi South 5.8 mph - N/A   Clear
8:54 PM 32.0 °F 24.8 °F 28.4 °F 87% 30.22 in 5.0 mi South 8.1 mph - N/A   Clear
9:14 PM 32.0 °F 24.8 °F 28.4 °F 87% 30.20 in 5.0 mi South 8.1 mph - N/A   Clear
9:35 PM 32.0 °F 25.6 °F 28.4 °F 87% 30.19 in 4.0 mi South 6.9 mph - N/A   Clear
9:54 PM 32.0 °F 25.6 °F 28.4 °F 87% 30.19 in 5.0 mi South 6.9 mph - N/A   Clear
10:34 PM 30.2 °F 22.6 °F 28.4 °F 93% 30.18 in 5.0 mi South 8.1 mph - N/A   Clear
10:54 PM 32.0 °F 24.2 °F 28.4 °F 87% 30.18 in 5.0 mi South 9.2 mph - N/A   Clear
11:14 PM 32.0 °F 24.2 °F 28.4 °F 87% 30.18 in 5.0 mi South 9.2 mph - N/A   Clear
11:34 PM 32.0 °F 24.2 °F 28.4 °F 87% 30.17 in 7.0 mi South 9.2 mph - N/A   Clear